Dades meteomassalio
Diari Summary for Agost 7, 2017 Units:  Metric    English   Both
« Previous Day
Next Day »
Diari Semanal Mensual Anual Personalitzat
  Maxima: Minima: Mijana:
Temperatura: 33.9 °C 20.1 °C 27.8 °C
Rosada: 21.6 °C 17.1 °C 19.5 °C
Humitat: 84 % 40 % 62 %
Velocitat del vent: 38.9 km/h 0.0 km/h 11.3 km/h
Racha vent: 38.9 km/h - -
Vent:- - ESE
Pressio: 1015.5 hPa 1006.7 hPa -
Pluja: 0.0 mm    
Historical Graphs
 
 
Tabular Data for Agost 7, 2017
Time Temperature Dew Point Pressure Wind Wind Speed Wind Gust Humidity Rainfall Rate (Hourly) solar Conditions
00:01 25.5 °C 19.2 °C 1015.1 hPa Calm     68 % 0.0 mm 0.0 W/m2 CLR
00:06 25.5 °C 19.2 °C 1015.5 hPa Calm     68 % 0.0 mm 0.0 W/m2 CLR
00:11 25.5 °C 19.2 °C 1015.1 hPa Calm     68 % 0.0 mm 0.0 W/m2 CLR
00:16 25.5 °C 19.2 °C 1014.8 hPa ESE 9.3 km/h 9.3 km/h 68 % 0.0 mm 0.0 W/m2 CLR
00:21 25.4 °C 19.1 °C 1015.1 hPa SE 5.6 km/h 5.6 km/h 68 % 0.0 mm 0.0 W/m2 CLR
00:26 25.4 °C 19.1 °C 1015.1 hPa Calm     68 % 0.0 mm 0.0 W/m2 CLR
00:31 25.3 °C 19.2 °C 1015.1 hPa Calm     69 % 0.0 mm 0.0 W/m2 CLR
00:36 25.3 °C 19.2 °C 1015.1 hPa SE 5.6 km/h 5.6 km/h 69 % 0.0 mm 0.0 W/m2 CLR
00:41 25.3 °C 19.0 °C 1015.1 hPa SE 8.0 km/h 8.0 km/h 68 % 0.0 mm 0.0 W/m2 CLR
00:46 25.3 °C 19.0 °C 1015.1 hPa SSE 7.4 km/h 7.4 km/h 68 % 0.0 mm 0.0 W/m2 CLR
00:51 25.3 °C 19.2 °C 1014.8 hPa South 5.6 km/h 5.6 km/h 69 % 0.0 mm 0.0 W/m2 CLR
00:56 25.3 °C 19.2 °C 1015.1 hPa Calm     69 % 0.0 mm 0.0 W/m2 CLR
01:01 25.2 °C 19.1 °C 1015.1 hPa SE 9.3 km/h 9.3 km/h 69 % 0.0 mm 0.0 W/m2 CLR
01:06 25.2 °C 19.1 °C 1015.1 hPa Calm     69 % 0.0 mm 0.0 W/m2 CLR
01:11 25.1 °C 19.0 °C 1015.1 hPa Calm     69 % 0.0 mm 0.0 W/m2 CLR
01:16 25.1 °C 19.0 °C 1015.1 hPa Calm     69 % 0.0 mm 0.0 W/m2 CLR
01:21 25.1 °C 19.2 °C 1015.1 hPa Calm     70 % 0.0 mm 0.0 W/m2 CLR
01:26 25.0 °C 19.2 °C 1015.1 hPa SSE 7.4 km/h 7.4 km/h 70 % 0.0 mm 0.0 W/m2 CLR
01:31 25.0 °C 19.2 °C 1015.1 hPa Calm     70 % 0.0 mm 0.0 W/m2 CLR
01:36 24.9 °C 19.1 °C 1015.1 hPa Calm     70 % 0.0 mm 0.0 W/m2 CLR
01:41 24.9 °C 19.1 °C 1015.1 hPa Calm     70 % 0.0 mm 0.0 W/m2 CLR
01:46 24.9 °C 19.1 °C 1015.1 hPa Calm     70 % 0.0 mm 0.0 W/m2 CLR
01:51 24.8 °C 19.0 °C 1015.1 hPa Calm     70 % 0.0 mm 0.0 W/m2 CLR
01:56 24.8 °C 19.2 °C 1015.1 hPa Calm     71 % 0.0 mm 0.0 W/m2 CLR
02:01 24.7 °C 19.1 °C 1015.1 hPa Calm     71 % 0.0 mm 0.0 W/m2 CLR
02:06 24.7 °C 19.1 °C 1015.1 hPa Calm     71 % 0.0 mm 0.0 W/m2 CLR
02:11 24.6 °C 18.9 °C 1014.8 hPa Calm     71 % 0.0 mm 0.0 W/m2 CLR
02:16 24.4 °C 19.1 °C 1015.1 hPa Calm     72 % 0.0 mm 0.0 W/m2 CLR
02:17 24.4 °C 19.0 °C 1015.1 hPa Calm     72 % 0.0 mm 0.0 W/m2 CLR
02:22 24.3 °C 18.9 °C 1014.8 hPa Calm     72 % 0.0 mm 0.0 W/m2 CLR
02:32 24.2 °C 19.0 °C 1014.8 hPa Calm     73 % 0.0 mm 0.0 W/m2 CLR
02:37 24.1 °C 18.9 °C 1014.8 hPa Calm     73 % 0.0 mm 0.0 W/m2 CLR
02:42 24.0 °C 18.8 °C 1014.8 hPa Calm     73 % 0.0 mm 0.0 W/m2 CLR
02:47 23.8 °C 18.9 °C 1014.8 hPa Calm     74 % 0.0 mm 0.0 W/m2 CLR
02:57 23.6 °C 18.9 °C 1014.8 hPa Calm     75 % 0.0 mm 0.0 W/m2 CLR
03:02 23.5 °C 18.8 °C 1014.8 hPa Calm     75 % 0.0 mm 0.0 W/m2 CLR
03:07 23.4 °C 18.7 °C 1014.8 hPa Calm     75 % 0.0 mm 0.0 W/m2 CLR
03:12 23.4 °C 18.7 °C 1014.8 hPa Calm     75 % 0.0 mm 0.0 W/m2 CLR
03:17 23.4 °C 18.7 °C 1014.8 hPa Calm     75 % 0.0 mm 0.0 W/m2 CLR
03:22 23.3 °C 18.7 °C 1014.8 hPa Calm     75 % 0.0 mm 0.0 W/m2 CLR
03:27 23.3 °C 18.8 °C 1014.4 hPa Calm     76 % 0.0 mm 0.0 W/m2 CLR
03:32 23.3 °C 18.8 °C 1014.8 hPa Calm     76 % 0.0 mm 0.0 W/m2 CLR
03:37 23.2 °C 18.8 °C 1014.8 hPa Calm     76 % 0.0 mm 0.0 W/m2 CLR
03:47 23.1 °C 18.7 °C 1014.4 hPa Calm     76 % 0.0 mm 0.0 W/m2 CLR
03:52 23.0 °C 18.6 °C 1014.4 hPa Calm     76 % 0.0 mm 0.0 W/m2 CLR
03:57 22.9 °C 18.4 °C 1014.4 hPa Calm     76 % 0.0 mm 0.0 W/m2 CLR
04:02 22.8 °C 18.6 °C 1014.4 hPa Calm     77 % 0.0 mm 0.0 W/m2 CLR
04:07 22.7 °C 18.7 °C 1014.4 hPa Calm     78 % 0.0 mm 0.0 W/m2 CLR
04:12 22.6 °C 18.4 °C 1014.4 hPa Calm     77 % 0.0 mm 0.0 W/m2 CLR
04:17 22.5 °C 18.3 °C 1014.4 hPa Calm     77 % 0.0 mm 0.0 W/m2 CLR
04:22 22.3 °C 18.1 °C 1014.1 hPa Calm     77 % 0.0 mm 0.0 W/m2 CLR
04:27 22.2 °C 18.0 °C 1014.1 hPa Calm     77 % 0.0 mm 0.0 W/m2 CLR
04:32 22.2 °C 17.9 °C 1014.4 hPa Calm     77 % 0.0 mm 0.0 W/m2 CLR
04:37 22.1 °C 18.1 °C 1014.1 hPa Calm     78 % 0.0 mm 0.0 W/m2 CLR
04:42 21.9 °C 17.9 °C 1014.1 hPa Calm     78 % 0.0 mm 0.0 W/m2 CLR
04:47 21.9 °C 17.9 °C 1014.1 hPa Calm     78 % 0.0 mm 0.0 W/m2 CLR
04:57 21.7 °C 17.7 °C 1014.1 hPa Calm     78 % 0.0 mm 0.0 W/m2 CLR
05:02 21.6 °C 17.8 °C 1014.1 hPa Calm     79 % 0.0 mm 0.0 W/m2 CLR
05:07 21.5 °C 17.7 °C 1014.1 hPa Calm     79 % 0.0 mm 0.0 W/m2 CLR
05:09 21.5 °C 17.7 °C 1014.1 hPa Calm     79 % 0.0 mm 0.0 W/m2 CLR
05:14 21.4 °C 17.8 °C 1014.1 hPa Calm     80 % 0.0 mm 0.0 W/m2 CLR
05:19 21.4 °C 17.8 °C 1014.1 hPa Calm     80 % 0.0 mm 0.0 W/m2 CLR
05:20 21.3 °C 17.7 °C 1014.1 hPa Calm     80 % 0.0 mm 0.0 W/m2 CLR
05:25 21.2 °C 17.6 °C 1014.1 hPa Calm     80 % 0.0 mm 0.0 W/m2 CLR
05:29 21.2 °C 17.8 °C 1014.1 hPa Calm     81 % 0.0 mm 0.0 W/m2 CLR
05:35 21.1 °C 17.7 °C 1014.1 hPa Calm     81 % 0.0 mm 0.0 W/m2 CLR
05:40 21.1 °C 17.9 °C 1013.8 hPa Calm     82 % 0.0 mm 0.0 W/m2 CLR
05:45 21.1 °C 17.7 °C 1013.8 hPa Calm     81 % 0.0 mm 0.0 W/m2 CLR
05:50 20.9 °C 17.6 °C 1013.8 hPa Calm     81 % 0.0 mm 0.0 W/m2 CLR
05:56 20.9 °C 17.5 °C 1013.8 hPa Calm     81 % 0.0 mm 0.0 W/m2 CLR
06:01 20.8 °C 17.4 °C 1013.8 hPa Calm     81 % 0.0 mm 0.0 W/m2 CLR
06:06 20.8 °C 17.6 °C 1013.8 hPa Calm     82 % 0.0 mm 0.0 W/m2 CLR
06:11 20.8 °C 17.6 °C 1014.1 hPa Calm     82 % 0.0 mm 0.0 W/m2 CLR
06:16 20.7 °C 17.3 °C 1014.1 hPa Calm     81 % 0.0 mm 0.0 W/m2 CLR
06:21 20.6 °C 17.4 °C 1014.1 hPa Calm     82 % 0.0 mm 0.0 W/m2 CLR
06:26 20.5 °C 17.3 °C 1014.1 hPa Calm     82 % 0.0 mm 0.0 W/m2 CLR
06:31 20.4 °C 17.3 °C 1014.1 hPa Calm     82 % 0.0 mm 0.0 W/m2 CLR
06:36 20.4 °C 17.2 °C 1014.1 hPa Calm     82 % 0.0 mm 0.0 W/m2 CLR
06:41 20.3 °C 17.2 °C 1014.1 hPa Calm     82 % 0.0 mm 0.0 W/m2 CLR
06:46 20.3 °C 17.2 °C 1014.1 hPa Calm     82 % 0.0 mm 0.0 W/m2 CLR
06:51 20.3 °C 17.3 °C 1014.1 hPa Calm     83 % 0.0 mm 0.0 W/m2 CLR
06:56 20.3 °C 17.3 °C 1014.1 hPa Calm     83 % 0.0 mm 0.0 W/m2 CLR
07:01 20.3 °C 17.3 °C 1014.1 hPa Calm     83 % 0.0 mm 0.0 W/m2 OVC
07:06 20.2 °C 17.2 °C 1014.1 hPa Calm     83 % 0.0 mm 5.0 W/m2 OVC
07:11 20.2 °C 17.2 °C 1014.1 hPa Calm     83 % 0.0 mm 9.0 W/m2 BKN
07:16 20.1 °C 17.1 °C 1014.1 hPa Calm     83 % 0.0 mm 12.0 W/m2 BKN
07:21 20.1 °C 17.1 °C 1014.4 hPa Calm     83 % 0.0 mm 16.0 W/m2 BKN
07:26 20.1 °C 17.3 °C 1014.4 hPa Calm     84 % 0.0 mm 19.0 W/m2 BKN
07:31 20.2 °C 17.4 °C 1014.4 hPa Calm     84 % 0.0 mm 25.0 W/m2 BKN
07:36 20.3 °C 17.3 °C 1014.4 hPa Calm     83 % 0.0 mm 32.0 W/m2 BKN
07:41 20.5 °C 17.5 °C 1014.4 hPa Calm     83 % 0.0 mm 39.0 W/m2 BKN
07:46 20.7 °C 17.7 °C 1014.4 hPa Calm     83 % 0.0 mm 42.0 W/m2 BKN
07:51 20.9 °C 17.7 °C 1014.4 hPa Calm     82 % 0.0 mm 58.0 W/m2 SCT
07:56 21.1 °C 17.9 °C 1014.4 hPa Calm     82 % 0.0 mm 70.0 W/m2 FEW
08:01 21.3 °C 17.9 °C 1014.4 hPa Calm     81 % 0.0 mm 83.0 W/m2 FEW
08:06 21.4 °C 17.8 °C 1014.4 hPa Calm     80 % 0.0 mm 95.0 W/m2 FEW
08:11 21.6 °C 18.0 °C 1014.4 hPa Calm     80 % 0.0 mm 109.0 W/m2 CLR
08:16 21.8 °C 18.0 °C 1014.4 hPa Calm     79 % 0.0 mm 127.0 W/m2 CLR
08:21 21.9 °C 17.9 °C 1014.4 hPa Calm     78 % 0.0 mm 142.0 W/m2 CLR
08:26 22.2 °C 18.0 °C 1014.4 hPa Calm     77 % 0.0 mm 156.0 W/m2 CLR
08:31 22.4 °C 18.0 °C 1014.4 hPa WSW 5.6 km/h 5.6 km/h 76 % 0.0 mm 174.0 W/m2 CLR
08:36 22.6 °C 17.9 °C 1014.4 hPa SW 5.6 km/h 5.6 km/h 75 % 0.0 mm 186.0 W/m2 CLR
08:41 22.8 °C 17.9 °C 1014.4 hPa Calm     74 % 0.0 mm 206.0 W/m2 CLR
08:46 23.1 °C 18.2 °C 1014.4 hPa Calm     74 % 0.0 mm 221.0 W/m2 CLR
08:51 23.4 °C 18.3 °C 1014.4 hPa Calm     73 % 0.0 mm 237.0 W/m2 CLR
08:56 23.8 °C 18.3 °C 1014.4 hPa Calm     71 % 0.0 mm 250.0 W/m2 CLR
09:01 24.1 °C 18.5 °C 1014.4 hPa Calm     71 % 0.0 mm 267.0 W/m2 CLR
09:06 24.4 °C 18.6 °C 1014.1 hPa Calm     70 % 0.0 mm 285.0 W/m2 CLR
09:11 24.7 °C 18.8 °C 1014.1 hPa Calm     70 % 0.0 mm 301.0 W/m2 CLR
09:12 24.7 °C 18.9 °C 1014.1 hPa Calm     70 % 0.0 mm 304.0 W/m2 CLR
09:17 25.2 °C 19.1 °C 1014.1 hPa Calm     69 % 0.0 mm 318.0 W/m2 CLR
09:23 25.4 °C 19.1 °C 1014.1 hPa Calm     68 % 0.0 mm 338.0 W/m2 CLR
09:28 25.5 °C 19.2 °C 1014.1 hPa Calm     68 % 0.0 mm 352.0 W/m2 CLR
09:33 25.9 °C 19.6 °C 1014.1 hPa Calm     68 % 0.0 mm 366.0 W/m2 CLR
09:38 26.2 °C 19.6 °C 1013.8 hPa Calm     67 % 0.0 mm 181.0 W/m2 CLR
09:43 26.6 °C 19.7 °C 1013.8 hPa Calm     66 % 0.0 mm 186.0 W/m2 CLR
09:48 26.8 °C 19.7 °C 1013.8 hPa Calm     65 % 0.0 mm 415.0 W/m2 CLR
09:53 27.2 °C 19.8 °C 1013.8 hPa Calm     64 % 0.0 mm 429.0 W/m2 CLR
09:58 27.7 °C 19.7 °C 1013.8 hPa Calm     62 % 0.0 mm 443.0 W/m2 CLR
10:03 27.8 °C 19.9 °C 1013.8 hPa Calm     62 % 0.0 mm 461.0 W/m2 CLR
10:08 28.0 °C 20.1 °C 1013.4 hPa ENE 5.6 km/h 5.6 km/h 62 % 0.0 mm 476.0 W/m2 CLR
10:13 28.0 °C 20.1 °C 1013.4 hPa ENE 6.4 km/h 6.4 km/h 62 % 0.0 mm 492.0 W/m2 CLR
10:18 28.1 °C 20.1 °C 1013.4 hPa ENE 7.4 km/h 7.4 km/h 62 % 0.0 mm 506.0 W/m2 CLR
10:23 28.3 °C 20.3 °C 1013.4 hPa NNE 7.4 km/h 7.4 km/h 62 % 0.0 mm 519.0 W/m2 CLR
10:28 28.5 °C 20.0 °C 1013.4 hPa ENE 1.9 km/h   60 % 0.0 mm 534.0 W/m2 CLR
10:33 28.5 °C 20.0 °C 1013.1 hPa NE 11.3 km/h 11.3 km/h 60 % 0.0 mm 548.0 W/m2 CLR
10:38 28.5 °C 20.2 °C 1013.1 hPa NNE 7.4 km/h 7.4 km/h 61 % 0.0 mm 561.0 W/m2 CLR
10:43 28.8 °C 20.3 °C 1013.1 hPa NE 3.7 km/h 3.7 km/h 60 % 0.0 mm 578.0 W/m2 CLR
10:48 29.2 °C 20.4 °C 1013.1 hPa NE 14.8 km/h 14.8 km/h 59 % 0.0 mm 592.0 W/m2 CLR
10:53 29.3 °C 20.2 °C 1013.1 hPa ENE 14.5 km/h 14.5 km/h 58 % 0.0 mm 605.0 W/m2 CLR
10:58 29.3 °C 20.2 °C 1013.1 hPa NE 13.0 km/h 13.0 km/h 58 % 0.0 mm 615.0 W/m2 CLR
11:03 29.6 °C 20.1 °C 1013.1 hPa ENE 11.1 km/h 11.1 km/h 57 % 0.0 mm 628.0 W/m2 CLR
11:08 29.6 °C 19.3 °C 1013.1 hPa SE 7.4 km/h 7.4 km/h 54 % 0.0 mm 640.0 W/m2 CLR
11:13 29.5 °C 19.8 °C 1013.1 hPa ESE 6.4 km/h 6.4 km/h 56 % 0.0 mm 652.0 W/m2 CLR
11:18 29.7 °C 20.0 °C 1013.1 hPa ENE 3.7 km/h 3.7 km/h 56 % 0.0 mm 668.0 W/m2 CLR
11:23 29.9 °C 19.9 °C 1013.1 hPa Calm     55 % 0.0 mm 675.0 W/m2 CLR
11:28 30.4 °C 20.1 °C 1012.8 hPa Calm     54 % 0.0 mm 686.0 W/m2 CLR
11:33 30.7 °C 20.3 °C 1012.8 hPa ENE 5.6 km/h 5.6 km/h 54 % 0.0 mm 696.0 W/m2 CLR
11:38 30.9 °C 20.2 °C 1012.8 hPa ENE 11.1 km/h 11.1 km/h 53 % 0.0 mm 712.0 W/m2 CLR
11:43 30.9 °C 19.9 °C 1012.8 hPa NE 9.3 km/h 9.3 km/h 52 % 0.0 mm 719.0 W/m2 CLR
11:48 31.2 °C 19.2 °C 1012.8 hPa SE 9.3 km/h 9.3 km/h 49 % 0.0 mm 733.0 W/m2 CLR
11:53 30.9 °C 18.6 °C 1012.8 hPa Calm     48 % 0.0 mm 742.0 W/m2 CLR
11:58 31.1 °C 19.7 °C 1012.8 hPa Calm     51 % 0.0 mm 738.0 W/m2 CLR
12:03 31.2 °C 19.6 °C 1012.8 hPa East 11.1 km/h 11.1 km/h 50 % 0.0 mm 752.0 W/m2 CLR
12:08 31.5 °C 19.8 °C 1012.8 hPa NE 13.0 km/h 13.0 km/h 50 % 0.0 mm 765.0 W/m2 CLR
12:13 31.6 °C 19.6 °C 1012.8 hPa ESE 3.7 km/h 3.7 km/h 49 % 0.0 mm 779.0 W/m2 CLR
12:18 31.9 °C 19.9 °C 1012.8 hPa Calm     49 % 0.0 mm 788.0 W/m2 CLR
12:23 32.2 °C 19.8 °C 1012.4 hPa NE 11.1 km/h 11.1 km/h 48 % 0.0 mm 793.0 W/m2 CLR
12:28 32.4 °C 19.3 °C 1012.4 hPa NE 4.8 km/h 4.8 km/h 46 % 0.0 mm 800.0 W/m2 CLR
12:33 32.3 °C 18.9 °C 1012.4 hPa Calm     45 % 0.0 mm 810.0 W/m2 CLR
12:38 32.2 °C 18.8 °C 1012.4 hPa ENE 9.3 km/h 9.3 km/h 45 % 0.0 mm 817.0 W/m2 CLR
12:43 32.6 °C 18.4 °C 1012.4 hPa ENE 12.9 km/h 12.9 km/h 43 % 0.0 mm 824.0 W/m2 CLR
12:48 32.7 °C 18.5 °C 1012.1 hPa Calm     43 % 0.0 mm 831.0 W/m2 CLR
12:53 33.2 °C 18.2 °C 1012.1 hPa East 9.3 km/h 9.3 km/h 41 % 0.0 mm 837.0 W/m2 CLR
12:58 33.4 °C 17.9 °C 1012.1 hPa ENE 9.3 km/h 9.3 km/h 40 % 0.0 mm 840.0 W/m2 CLR
13:03 33.4 °C 19.2 °C 1011.7 hPa ENE 13.0 km/h 13.0 km/h 43 % 0.0 mm 846.0 W/m2 CLR
13:08 33.5 °C 18.8 °C 1011.7 hPa ENE 11.1 km/h 11.1 km/h 42 % 0.0 mm 853.0 W/m2 CLR
13:13 33.7 °C 19.0 °C 1011.7 hPa East 9.3 km/h 9.3 km/h 42 % 0.0 mm 858.0 W/m2 CLR
13:18 33.9 °C 19.6 °C 1011.7 hPa ENE 11.3 km/h 11.3 km/h 43 % 0.0 mm 856.0 W/m2 CLR
13:23 33.9 °C 19.6 °C 1011.4 hPa East 5.6 km/h 5.6 km/h 43 % 0.0 mm 870.0 W/m2 CLR
13:28 33.8 °C 19.5 °C 1011.4 hPa ENE 8.0 km/h 8.0 km/h 43 % 0.0 mm 865.0 W/m2 CLR
13:33 33.6 °C 19.6 °C 1011.4 hPa East 20.4 km/h 20.4 km/h 44 % 0.0 mm 863.0 W/m2 CLR
13:38 33.5 °C 19.9 °C 1011.1 hPa East 13.0 km/h 13.0 km/h 45 % 0.0 mm 877.0 W/m2 CLR
13:43 33.3 °C 19.7 °C 1011.1 hPa East 16.7 km/h 16.7 km/h 45 % 0.0 mm 900.0 W/m2 CLR
13:44 33.2 °C 19.7 °C 1011.1 hPa ENE 13.0 km/h 13.0 km/h 45 % 0.0 mm 904.0 W/m2 CLR
13:49 33.1 °C 19.9 °C 1011.1 hPa ENE 16.7 km/h 16.7 km/h 46 % 0.0 mm 874.0 W/m2 CLR
13:54 33.1 °C 20.2 °C 1011.1 hPa ESE 20.9 km/h 20.9 km/h 47 % 0.0 mm 255.0 W/m2 CLR
13:59 32.6 °C 20.2 °C 1011.1 hPa SSE 29.6 km/h 29.6 km/h 48 % 0.0 mm 221.0 W/m2 CLR
14:04 32.6 °C 20.1 °C 1010.7 hPa SE 27.8 km/h 27.8 km/h 48 % 0.0 mm 900.0 W/m2 CLR
14:09 32.8 °C 20.1 °C 1010.7 hPa East 20.4 km/h 20.4 km/h 47 % 0.0 mm 888.0 W/m2 CLR
14:14 32.8 °C 20.1 °C 1010.7 hPa ESE 22.2 km/h 22.2 km/h 47 % 0.0 mm 868.0 W/m2 CLR
14:19 33.1 °C 20.2 °C 1010.7 hPa ESE 29.6 km/h 29.6 km/h 47 % 0.0 mm 898.0 W/m2 CLR
14:24 32.9 °C 20.1 °C 1010.4 hPa SE 31.5 km/h 31.5 km/h 47 % 0.0 mm 946.0 W/m2 CLR
14:29 33.0 °C 20.6 °C 1010.4 hPa SE 27.8 km/h 27.8 km/h 48 % 0.0 mm 888.0 W/m2 CLR
14:34 33.0 °C 20.6 °C 1010.4 hPa ESE 22.2 km/h 22.2 km/h 48 % 0.0 mm 909.0 W/m2 CLR
14:39 33.0 °C 20.6 °C 1010.0 hPa East 24.1 km/h 24.1 km/h 48 % 0.0 mm 928.0 W/m2 CLR
14:44 32.8 °C 20.7 °C 1010.0 hPa East 31.5 km/h 31.5 km/h 49 % 0.0 mm 891.0 W/m2 CLR
14:49 32.9 °C 20.8 °C 1010.0 hPa ESE 33.3 km/h 33.3 km/h 49 % 0.0 mm 932.0 W/m2 CLR
14:54 33.3 °C 20.5 °C 1010.0 hPa SE 29.6 km/h 29.6 km/h 47 % 0.0 mm 861.0 W/m2 CLR
14:59 33.7 °C 21.2 °C 1010.0 hPa SE 25.9 km/h 25.9 km/h 48 % 0.0 mm 849.0 W/m2 CLR
15:04 33.7 °C 20.1 °C 1009.7 hPa ESE 25.9 km/h 25.9 km/h 45 % 0.0 mm 865.0 W/m2 CLR
15:09 33.4 °C 20.2 °C 1009.7 hPa ESE 24.1 km/h 24.1 km/h 46 % 0.0 mm 842.0 W/m2 CLR
15:14 33.4 °C 20.6 °C 1009.7 hPa ESE 22.2 km/h 22.2 km/h 47 % 0.0 mm 867.0 W/m2 CLR
15:19 33.3 °C 20.4 °C 1009.7 hPa East 20.9 km/h 20.9 km/h 47 % 0.0 mm 919.0 W/m2 CLR
15:29 33.1 °C 20.6 °C 1009.4 hPa ESE 29.6 km/h 29.6 km/h 48 % 0.0 mm 831.0 W/m2 CLR
15:34 32.9 °C 20.5 °C 1009.4 hPa SE 33.3 km/h 33.3 km/h 48 % 0.0 mm 812.0 W/m2 CLR
15:39 32.7 °C 20.9 °C 1009.4 hPa ESE 35.2 km/h 35.2 km/h 50 % 0.0 mm 431.0 W/m2 CLR
15:44 32.6 °C 21.2 °C 1009.0 hPa ESE 22.5 km/h 22.5 km/h 51 % 0.0 mm 782.0 W/m2 CLR
15:49 33.1 °C 21.2 °C 1009.4 hPa ESE 37.0 km/h 37.0 km/h 50 % 0.0 mm 773.0 W/m2 CLR
15:54 32.7 °C 21.2 °C 1009.0 hPa ESE 38.9 km/h 38.9 km/h 51 % 0.0 mm 763.0 W/m2 CLR
15:59 32.4 °C 21.0 °C 1009.0 hPa ESE 38.6 km/h 38.6 km/h 51 % 0.0 mm 770.0 W/m2 CLR
16:04 32.6 °C 21.2 °C 1009.0 hPa SE 38.6 km/h 38.6 km/h 51 % 0.0 mm 758.0 W/m2 CLR
16:09 32.7 °C 20.9 °C 1008.7 hPa ESE 35.2 km/h 35.2 km/h 50 % 0.0 mm 747.0 W/m2 CLR
16:14 33.2 °C 21.1 °C 1008.7 hPa SE 35.4 km/h 35.4 km/h 49 % 0.0 mm 745.0 W/m2 CLR
16:19 33.2 °C 21.0 °C 1008.7 hPa SE 24.1 km/h 24.1 km/h 49 % 0.0 mm 735.0 W/m2 CLR
16:24 33.3 °C 20.8 °C 1008.7 hPa ESE 37.0 km/h 37.0 km/h 48 % 0.0 mm 490.0 W/m2 CLR
16:29 33.0 °C 21.2 °C 1008.7 hPa SE 33.3 km/h 33.3 km/h 50 % 0.0 mm 742.0 W/m2 CLR
16:34 33.2 °C 21.4 °C 1008.7 hPa ESE 29.6 km/h 29.6 km/h 50 % 0.0 mm 719.0 W/m2 CLR
16:39 32.9 °C 21.1 °C 1008.7 hPa SSE 33.3 km/h 33.3 km/h 50 % 0.0 mm 717.0 W/m2 CLR
16:44 32.8 °C 21.3 °C 1008.7 hPa ESE 35.2 km/h 35.2 km/h 51 % 0.0 mm 650.0 W/m2 CLR
16:49 32.5 °C 21.4 °C 1008.7 hPa ESE 35.4 km/h 35.4 km/h 52 % 0.0 mm 715.0 W/m2 CLR
16:54 32.3 °C 21.2 °C 1008.7 hPa SE 31.5 km/h 31.5 km/h 52 % 0.0 mm 701.0 W/m2 CLR
17:00 32.1 °C 21.3 °C 1008.7 hPa ESE 33.3 km/h 33.3 km/h 53 % 0.0 mm 675.0 W/m2 CLR
17:05 32.3 °C 21.2 °C 1008.7 hPa SE 32.2 km/h 32.2 km/h 52 % 0.0 mm 657.0 W/m2 CLR
17:10 32.5 °C 21.4 °C 1008.4 hPa SE 35.2 km/h 35.2 km/h 52 % 0.0 mm 640.0 W/m2 CLR
17:15 32.6 °C 21.2 °C 1008.4 hPa SE 35.4 km/h 35.4 km/h 51 % 0.0 mm 592.0 W/m2 CLR
17:20 32.3 °C 21.2 °C 1008.4 hPa ESE 33.3 km/h 33.3 km/h 52 % 0.0 mm 617.0 W/m2 CLR
17:25 32.2 °C 21.4 °C 1008.7 hPa ESE 37.0 km/h 37.0 km/h 53 % 0.0 mm 506.0 W/m2 CLR
17:30 31.9 °C 21.5 °C 1008.4 hPa SE 37.0 km/h 37.0 km/h 54 % 0.0 mm 258.0 W/m2 CLR
17:35 31.7 °C 21.3 °C 1008.4 hPa ESE 35.2 km/h 35.2 km/h 54 % 0.0 mm 274.0 W/m2 CLR
17:40 31.4 °C 21.3 °C 1008.0 hPa South 27.8 km/h 27.8 km/h 55 % 0.0 mm 265.0 W/m2 CLR
17:45 31.7 °C 21.5 °C 1008.0 hPa SE 22.2 km/h 22.2 km/h 55 % 0.0 mm 334.0 W/m2 CLR
17:50 31.7 °C 21.6 °C 1008.0 hPa ESE 31.5 km/h 31.5 km/h 55 % 0.0 mm 466.0 W/m2 CLR
17:55 31.7 °C 21.2 °C 1008.0 hPa ESE 38.9 km/h 38.9 km/h 54 % 0.0 mm 350.0 W/m2 CLR
18:00 31.8 °C 21.4 °C 1008.4 hPa SE 22.2 km/h 22.7 km/h 54 % 0.0 mm 489.0 W/m2 CLR
18:05 31.9 °C 21.4 °C 1008.0 hPa ESE 33.3 km/h 33.3 km/h 54 % 0.0 mm 450.0 W/m2 CLR
18:10 31.6 °C 21.4 °C 1008.0 hPa SE 22.2 km/h 22.8 km/h 55 % 0.0 mm 427.0 W/m2 CLR
18:15 31.8 °C 21.4 °C 1008.0 hPa SE 24.1 km/h 24.1 km/h 54 % 0.0 mm 274.0 W/m2 CLR
18:20 32.2 °C 21.1 °C 1008.0 hPa ESE 19.3 km/h 19.3 km/h 52 % 0.0 mm 283.0 W/m2 CLR
18:25 32.0 °C 21.2 °C 1008.0 hPa SE 16.7 km/h 16.7 km/h 53 % 0.0 mm 200.0 W/m2 CLR
18:30 31.8 °C 21.3 °C 1008.0 hPa SE 22.2 km/h 22.2 km/h 54 % 0.0 mm 200.0 W/m2 CLR
18:35 31.8 °C 21.3 °C 1008.0 hPa SE 24.1 km/h 24.1 km/h 54 % 0.0 mm 241.0 W/m2 CLR
18:40 31.8 °C 21.0 °C 1007.7 hPa SE 24.1 km/h 24.1 km/h 53 % 0.0 mm 178.0 W/m2 CLR
18:45 31.7 °C 21.2 °C 1008.0 hPa SSE 20.4 km/h 20.4 km/h 54 % 0.0 mm 158.0 W/m2 CLR
18:50 31.6 °C 21.1 °C 1008.0 hPa SE 27.4 km/h 27.4 km/h 54 % 0.0 mm 144.0 W/m2 CLR
18:55 31.4 °C 21.0 °C 1007.7 hPa SSE 20.9 km/h 20.9 km/h 54 % 0.0 mm 141.0 W/m2 CLR
19:00 31.4 °C 21.3 °C 1007.7 hPa SE 18.5 km/h 18.5 km/h 55 % 0.0 mm 176.0 W/m2 CLR
19:05 31.3 °C 21.4 °C 1007.7 hPa ESE 20.4 km/h 20.4 km/h 56 % 0.0 mm 251.0 W/m2 CLR
19:10 31.3 °C 21.2 °C 1007.7 hPa ESE 16.7 km/h 16.7 km/h 55 % 0.0 mm 206.0 W/m2 CLR
19:15 31.3 °C 21.2 °C 1007.7 hPa SE 18.5 km/h 18.5 km/h 55 % 0.0 mm 204.0 W/m2 CLR
19:20 31.2 °C 21.1 °C 1007.7 hPa SE 20.9 km/h 20.9 km/h 55 % 0.0 mm 316.0 W/m2 CLR
19:25 31.2 °C 21.4 °C 1007.7 hPa SE 22.2 km/h 22.2 km/h 56 % 0.0 mm 339.0 W/m2 CLR
19:30 31.1 °C 21.3 °C 1007.7 hPa East 18.5 km/h 18.5 km/h 56 % 0.0 mm 269.0 W/m2 CLR
19:35 31.1 °C 21.6 °C 1007.7 hPa ESE 20.4 km/h 20.4 km/h 57 % 0.0 mm 279.0 W/m2 CLR
19:40 30.9 °C 21.4 °C 1007.7 hPa SSE 20.4 km/h 20.4 km/h 57 % 0.0 mm 229.0 W/m2 CLR
19:50 30.9 °C 21.1 °C 1007.7 hPa SE 17.7 km/h 17.7 km/h 56 % 0.0 mm 137.0 W/m2 CLR
19:55 30.9 °C 21.1 °C 1007.3 hPa SSE 18.5 km/h 18.5 km/h 56 % 0.0 mm 146.0 W/m2 CLR
20:00 30.9 °C 21.2 °C 1007.3 hPa SSE 14.8 km/h 14.8 km/h 56 % 0.0 mm 156.0 W/m2 CLR
20:05 31.0 °C 20.9 °C 1007.7 hPa ESE 18.5 km/h 18.5 km/h 55 % 0.0 mm 155.0 W/m2 CLR
20:10 31.0 °C 20.9 °C 1007.7 hPa SE 13.0 km/h 13.0 km/h 55 % 0.0 mm 142.0 W/m2 CLR
20:15 31.0 °C 20.9 °C 1007.7 hPa ESE 11.3 km/h 11.3 km/h 55 % 0.0 mm 123.0 W/m2 CLR
20:20 30.9 °C 20.8 °C 1007.7 hPa SE 11.1 km/h 11.1 km/h 55 % 0.0 mm 100.0 W/m2 CLR
20:25 30.8 °C 21.0 °C 1007.7 hPa SSE 11.1 km/h 11.1 km/h 56 % 0.0 mm 79.0 W/m2 FEW
20:30 30.6 °C 20.8 °C 1007.3 hPa ESE 16.7 km/h 16.7 km/h 56 % 0.0 mm 70.0 W/m2 FEW
20:35 30.5 °C 20.7 °C 1007.3 hPa SE 20.4 km/h 20.4 km/h 56 % 0.0 mm 65.0 W/m2 SCT
20:40 30.4 °C 20.9 °C 1007.3 hPa SE 16.7 km/h 16.7 km/h 57 % 0.0 mm 54.0 W/m2 SCT
20:45 30.3 °C 20.8 °C 1007.3 hPa SE 16.1 km/h 16.1 km/h 57 % 0.0 mm 42.0 W/m2 BKN
20:50 30.2 °C 20.8 °C 1007.3 hPa ESE 11.1 km/h 11.1 km/h 57 % 0.0 mm 28.0 W/m2 BKN
20:55 30.1 °C 20.9 °C 1007.3 hPa ESE 11.3 km/h 11.3 km/h 58 % 0.0 mm 19.0 W/m2 BKN
21:00 30.1 °C 20.6 °C 1007.3 hPa SSE 19.3 km/h 19.3 km/h 57 % 0.0 mm 14.0 W/m2 BKN
21:05 30.1 °C 20.6 °C 1007.7 hPa SE 7.4 km/h 7.4 km/h 57 % 0.0 mm 9.0 W/m2 BKN
21:10 29.9 °C 20.5 °C 1007.3 hPa South 27.4 km/h 27.4 km/h 57 % 0.0 mm 0.0 W/m2 OVC
21:15 29.9 °C 20.4 °C 1007.7 hPa SSE 27.8 km/h 27.8 km/h 57 % 0.0 mm 0.0 W/m2 OVC
21:20 29.8 °C 20.4 °C 1007.7 hPa SSE 25.9 km/h 25.9 km/h 57 % 0.0 mm 0.0 W/m2 CLR
21:25 29.7 °C 20.3 °C 1007.7 hPa SSE 32.2 km/h 32.2 km/h 57 % 0.0 mm 0.0 W/m2 CLR
21:30 29.6 °C 20.4 °C 1007.7 hPa South 30.6 km/h 30.6 km/h 58 % 0.0 mm 0.0 W/m2 CLR
21:40 29.2 °C 20.4 °C 1007.3 hPa SSE 35.4 km/h 35.4 km/h 59 % 0.0 mm 0.0 W/m2 CLR
21:45 29.1 °C 20.6 °C 1007.7 hPa SSE 29.6 km/h 29.6 km/h 60 % 0.0 mm 0.0 W/m2 CLR
21:50 29.1 °C 20.5 °C 1007.7 hPa South 22.2 km/h 22.2 km/h 60 % 0.0 mm 0.0 W/m2 CLR
21:55 29.0 °C 20.4 °C 1007.7 hPa SSE 20.4 km/h 20.4 km/h 60 % 0.0 mm 0.0 W/m2 CLR
22:00 29.1 °C 20.5 °C 1007.7 hPa SSE 14.5 km/h 14.5 km/h 60 % 0.0 mm 0.0 W/m2 CLR
22:05 29.1 °C 20.5 °C 1007.7 hPa South 16.7 km/h 16.7 km/h 60 % 0.0 mm 0.0 W/m2 CLR
22:10 29.2 °C 20.3 °C 1007.7 hPa SSE 18.5 km/h 18.5 km/h 59 % 0.0 mm 0.0 W/m2 CLR
22:15 29.2 °C 20.4 °C 1007.7 hPa South 12.9 km/h 12.9 km/h 59 % 0.0 mm 0.0 W/m2 CLR
22:20 29.3 °C 20.2 °C 1007.7 hPa South 20.4 km/h 20.4 km/h 58 % 0.0 mm 0.0 W/m2 CLR
22:25 29.4 °C 20.3 °C 1007.7 hPa South 22.2 km/h 22.2 km/h 58 % 0.0 mm 0.0 W/m2 CLR
22:30 29.4 °C 20.3 °C 1007.7 hPa SE 20.9 km/h 20.9 km/h 58 % 0.0 mm 0.0 W/m2 CLR
22:35 29.4 °C 20.3 °C 1007.7 hPa South 20.9 km/h 20.9 km/h 58 % 0.0 mm 0.0 W/m2 CLR
22:40 29.4 °C 20.3 °C 1007.7 hPa SSE 18.5 km/h 18.5 km/h 58 % 0.0 mm 0.0 W/m2 CLR
22:45 29.5 °C 20.4 °C 1007.7 hPa SSW 31.5 km/h 31.5 km/h 58 % 0.0 mm 0.0 W/m2 CLR
22:50 29.7 °C 20.5 °C 1007.7 hPa SSE 24.1 km/h 24.1 km/h 58 % 0.0 mm 0.0 W/m2 CLR
22:55 29.8 °C 20.4 °C 1007.7 hPa SSW 20.4 km/h 20.4 km/h 57 % 0.0 mm 0.0 W/m2 CLR
23:00 29.9 °C 19.9 °C 1007.7 hPa South 22.2 km/h 22.2 km/h 55 % 0.0 mm 0.0 W/m2 CLR
23:05 30.1 °C 19.4 °C 1007.3 hPa South 29.6 km/h 29.6 km/h 53 % 0.0 mm 0.0 W/m2 CLR
23:10 30.3 °C 19.0 °C 1007.3 hPa South 18.5 km/h 18.5 km/h 51 % 0.0 mm 0.0 W/m2 CLR
23:15 30.3 °C 18.4 °C 1007.3 hPa South 20.4 km/h 20.4 km/h 49 % 0.0 mm 0.0 W/m2 CLR
23:20 30.4 °C 18.2 °C 1007.3 hPa SSE 13.0 km/h 13.0 km/h 48 % 0.0 mm 0.0 W/m2 CLR
23:25 30.4 °C 17.8 °C 1007.0 hPa South 9.3 km/h 9.3 km/h 47 % 0.0 mm 0.0 W/m2 CLR
23:30 30.4 °C 17.8 °C 1007.0 hPa Calm     47 % 0.0 mm 0.0 W/m2 CLR
23:35 30.3 °C 17.7 °C 1007.0 hPa Calm     47 % 0.0 mm 0.0 W/m2 CLR
23:40 30.1 °C 17.6 °C 1007.0 hPa Calm     47 % 0.0 mm 0.0 W/m2 CLR
23:45 30.0 °C 17.8 °C 1006.7 hPa Calm     48 % 0.0 mm 0.0 W/m2 CLR
23:50 29.8 °C 17.6 °C 1006.7 hPa Calm     48 % 0.0 mm 0.0 W/m2 CLR
23:55 29.7 °C 17.2 °C 1006.7 hPa Calm     47 % 0.0 mm 0.0 W/m2 CLR
Lo Temps de Massalio
Compliments of Weather Underground - 1.25 mb